This is the latest recevied weather packets stored in our database for station/object ED5YAL-15. If no packets are shown the sender has not sent any weather packets the latest 10 day(s).
| Time | Temp. | Humidity | Pressure | Rain* | Wind** | Luminosity | Snow |
|---|---|---|---|---|---|---|---|
| 1787727157 | 27.78° C | 29% | 1019.3 hPa | - | - | - | - |
| 1787726256 | 27.22° C | 29% | 1019 hPa | - | - | - | - |
| 1787725388 | 25° C | 28% | 1020.7 hPa | - | - | - | - |
| 1787725356 | 25° C | 28% | 1020.7 hPa | - | - | - | - |
| 1787724455 | 27.78° C | 28% | 1019.6 hPa | - | - | - | - |
| 1787723554 | 26.67° C | 28% | 1018.8 hPa | - | - | - | - |
| 1787722653 | 28.33° C | 27% | 1019.7 hPa | - | - | - | - |
| 1787721752 | 28.89° C | 27% | 1018.9 hPa | - | - | - | - |
| 1787720851 | 30° C | 29% | 1018.6 hPa | - | - | - | - |
| 1787719970 | 26.11° C | 28% | 1019.6 hPa | - | - | - | - |
| 1787719076 | 27.78° C | 28% | 1020.1 hPa | - | - | - | - |
| 1787718168 | 27.22° C | 28% | 1019.7 hPa | - | - | - | - |
| 1787717267 | 27.78° C | 28% | 1019.3 hPa | - | - | - | - |
| 1787716366 | 27.22° C | 28% | 1019.9 hPa | - | - | - | - |
| 1787715466 | 27.78° C | 28% | 1019.3 hPa | - | - | - | - |
| 1787714565 | 27.78° C | 28% | 1019.6 hPa | - | - | - | - |
| 1787713664 | 27.78° C | 28% | 1019.1 hPa | - | - | - | - |
| 1787712763 | 27.78° C | 28% | 1020.1 hPa | - | - | - | - |
| 1787711862 | 27.22° C | 27% | 1020 hPa | - | - | - | - |
| 1787710965 | 27.78° C | 26% | 1019.9 hPa | - | - | - | - |
| 1787710067 | 27.22° C | 25% | 1020.2 hPa | - | - | - | - |
| 1787709160 | 26.67° C | 24% | 1020.4 hPa | - | - | - | - |
| 1787708259 | 27.22° C | 25% | 1020.5 hPa | - | - | - | - |
| 1787707358 | 26.11° C | 24% | 1020.4 hPa | - | - | - | - |
| 1787706457 | 26.67° C | 25% | 1020.5 hPa | - | - | - | - |
* Rain since midnight (hover to see other rain measurements)
** Current wind speed in m/s (hover to see current wind gust speed)